Location: Girdwood
(60.9430°N, 149.1660°W)
Time: 20:10:16
(UTC-08:00)

Amateur Radio Satellites - All Passes

Search period start: 29 August 2014 19:40
Search period end: 30 August 2014 19:40
Location: Girdwood, 60.9430°N, 149.1660°W

Satellite Date Start Highest point End Downlink Frequencies (MHz)
Time Altitude Azimuth
OPAL 29 Aug 19:42:01 19:47:14 70° 298° (WNW) 19:52:26 ?
STRAND 1 29 Aug 19:45:21 19:49:14 21° 87° (E) 19:53:06 ?
MaSat-1 29 Aug 19:51:13 19:55:50 31° 3° (N) 20:00:13 437.345 MHz
Sapphire 29 Aug 19:57:49 20:03:12 68° 135° (SE) 20:08:37 437.095 MHz 1200 baud AX-25 AFSK
JAS-2 29 Aug 20:00:32 20:05:44 32° 266° (W) 20:10:34 435.800 - 435.900 CW/SSB, 435.910 FM
SO-67 29 Aug 20:27:01 20:30:22 43° 261° (W) 20:33:44 435.3500 MHz FM
PCSat 29 Aug 20:27:22 20:32:50 89° 322° (NW) 20:38:19 145.825 MHz
Hamsat 29 Aug 20:27:26 20:30:09 16° 276° (W) 20:32:54 145.90 MHz
UKube-1 29 Aug 20:31:53 20:35:22 24° 50° (NE) 20:38:51 145.840 MHz, 145.915 MHz
Oscar 11 29 Aug 20:39:30 20:42:38 20° 48° (NE) 20:45:48 145.825 FM, Beacon 2401.500 USB
FUNcube-1 29 Aug 21:03:00 21:05:38 16° 44° (NE) 21:08:18 145.950 - 145.970 MHz USB
RS-15 29 Aug 21:13:45 21:17:02 12° 273° (W) 21:20:22 29.354 - 29.394 USB, Beacon 29.352 USB
OPAL 29 Aug 21:21:22 21:25:27 24° 320° (NW) 21:29:33 ?
HO-68 29 Aug 21:23:19 21:30:29 87° 66° (ENE) 21:37:41 435.675 MHz FM
STRAND 1 29 Aug 21:24:03 21:29:12 85° 109° (ESE) 21:34:19 ?
MaSat-1 29 Aug 21:28:59 21:33:54 45° 27° (NNE) 21:38:24 437.345 MHz
Sapphire 29 Aug 21:41:31 21:46:52 56° 339° (NNW) 21:52:15 437.095 MHz 1200 baud AX-25 AFSK
UKube-1 29 Aug 22:06:48 22:11:10 85° 252° (WSW) 22:15:34 145.840 MHz, 145.915 MHz
PCSat 29 Aug 22:11:28 22:16:45 49° 347° (NNW) 22:22:03 145.825 MHz
Oscar 11 29 Aug 22:13:54 22:18:15 76° 69° (ENE) 22:22:39 145.825 FM, Beacon 2401.500 USB
FUNcube-1 29 Aug 22:37:07 22:41:17 58° 66° (ENE) 22:45:34 145.950 - 145.970 MHz USB
OPAL 29 Aug 23:00:54 23:02:50 12° 343° (NNW) 23:04:46 ?
STRAND 1 29 Aug 23:03:41 23:07:59 28° 311° (NW) 23:12:18 ?
MaSat-1 29 Aug 23:06:17 23:11:17 71° 231° (SW) 23:15:45 437.345 MHz
HO-68 29 Aug 23:12:46 23:19:03 32° 269° (W) 23:25:22 435.675 MHz FM
Sapphire 29 Aug 23:25:55 23:31:09 45° 4° (N) 23:36:22 437.095 MHz 1200 baud AX-25 AFSK
UKube-1 29 Aug 23:45:04 23:48:04 18° 273° (W) 23:51:04 145.840 MHz, 145.915 MHz
Oscar 11 29 Aug 23:51:29 23:54:57 23° 271° (W) 23:58:27 145.825 FM, Beacon 2401.500 USB
PCSat 29 Aug 23:55:47 00:01:04 48° 12° (NNE) 00:06:20 145.825 MHz
FUNcube-1 30 Aug 00:14:21 00:18:02 28° 268° (W) 00:21:48 145.950 - 145.970 MHz USB
KITSAT 1 30 Aug 00:23:27 00:29:42 26° 108° (ESE) 00:35:58 435.175 FM
OPAL 30 Aug 00:38:55 00:39:47 10° 7° (N) 00:40:38 ?
Saudisat 1A 30 Aug 00:42:12 00:45:56 27° 127° (SE) 00:49:42 436.775 MHz
STRAND 1 30 Aug 00:44:01 00:45:47 12° 334° (NNW) 00:47:34 ?
MaSat-1 30 Aug 00:44:10 00:47:30 19° 254° (WSW) 00:50:37 437.345 MHz
AO-40 30 Aug 00:48:25 02:59:48 14° 197° (SSW) 05:25:09 Beacon 2401.320
Oscar 10/S400 30 Aug 01:06:23 01:42:15 33° 189° (S) 06:25:23 145.825 - 145.975 CW/USB, Beacon 145.810 USB
Sapphire 30 Aug 01:09:52 01:15:19 66° 28° (NNE) 01:20:44 437.095 MHz 1200 baud AX-25 AFSK
PCSat 30 Aug 01:39:33 01:45:02 84° 36° (NE) 01:50:30 145.825 MHz
Oscar 19 30 Aug 01:52:38 01:54:47 12° 78° (ENE) 01:56:55 437.125 CW, 437.150 USB
OPAL 30 Aug 02:13:40 02:16:54 17° 31° (NNE) 02:20:10 ?
JAS-1B 30 Aug 02:15:00 02:18:26 14° 67° (ENE) 02:21:39 435.800 - 435.900 CW/SSB
KITSAT 1 30 Aug 02:15:51 02:23:50 66° 133° (SE) 02:31:50 435.175 FM
Saudisat 1A 30 Aug 02:20:41 02:25:07 84° 149° (SSE) 02:29:35 436.775 MHz
ITAMSAT 1 30 Aug 02:24:03 02:25:09 11° 76° (ENE) 02:26:15 435.822 SSB
Oscar 16 30 Aug 02:26:19 02:30:13 21° 86° (E) 02:34:07 437.025 USB, Beacon 2401.1428
AO-Echo 30 Aug 02:27:05 02:28:11 11° 78° (ENE) 02:29:17 ?
Uribyol 2 30 Aug 02:33:12 02:35:37 13° 79° (E) 02:38:02 436.500 FM
AO-27 30 Aug 02:51:18 02:54:36 17° 83° (E) 02:57:54 436.795 MHz FM
Sapphire 30 Aug 02:53:29 02:58:44 50° 232° (SW) 03:03:57 437.095 MHz 1200 baud AX-25 AFSK
Gurwin Techsat 1B 30 Aug 03:15:17 03:18:09 14° 79° (E) 03:21:00 435.225 FM
PCSat 30 Aug 03:23:14 03:28:07 34° 239° (WSW) 03:32:58 145.825 MHz
Oscar 19 30 Aug 03:30:21 03:35:26 50° 100° (E) 03:40:29 437.125 CW, 437.150 USB
OPAL 30 Aug 03:49:55 03:54:44 42° 53° (NE) 03:59:37 ?
STRAND 1 30 Aug 03:59:06 04:00:03 11° 22° (NNE) 04:01:00 ?
Saudisat 1A 30 Aug 04:00:37 04:05:00 55° 352° (N) 04:09:22 436.775 MHz
ITAMSAT 1 30 Aug 04:01:06 04:06:05 44° 98° (E) 04:11:01 435.822 SSB
AO-Echo 30 Aug 04:03:38 04:08:14 48° 100° (E) 04:12:47 ?
JAS-1B 30 Aug 04:04:17 04:11:31 48° 95° (E) 04:17:37 435.800 - 435.900 CW/SSB
Oscar 16 30 Aug 04:05:09 04:10:24 82° 108° (ESE) 04:15:38 437.025 USB, Beacon 2401.1428
TMSAT-1 30 Aug 04:06:33 04:10:51 24° 88° (E) 04:15:07 436.925 FM
Uribyol 2 30 Aug 04:11:14 04:16:20 53° 101° (E) 04:21:25 436.500 FM
KITSAT 1 30 Aug 04:11:17 04:19:24 71° 339° (NNW) 04:27:31 435.175 FM
AO-27 30 Aug 04:29:57 04:35:09 67° 105° (ESE) 04:40:19 436.795 MHz FM
AO-7 30 Aug 04:32:08 04:37:29 18° 77° (ENE) 04:42:48 29.400 - 29.500 MHz
Sapphire 30 Aug 04:38:09 04:41:03 15° 254° (WSW) 04:43:56 437.095 MHz 1200 baud AX-25 AFSK
SO-50 30 Aug 04:44:22 04:46:18 13° 113° (ESE) 04:48:15 436.795 FM
Gurwin Techsat 1B 30 Aug 04:54:05 04:59:20 57° 102° (ESE) 05:04:34 435.225 FM
Uosat F 30 Aug 04:54:14 04:57:02 15° 82° (E) 04:59:49 435.120 FM
Oscar 19 30 Aug 05:09:52 05:14:50 45° 302° (WNW) 05:19:45 437.125 CW, 437.150 USB
OPAL 30 Aug 05:28:34 05:33:35 55° 255° (WSW) 05:38:42 ?
STRAND 1 30 Aug 05:33:42 05:37:43 24° 46° (NE) 05:41:44 ?
Saudisat 1A 30 Aug 05:40:39 05:45:04 62° 15° (NNE) 05:49:28 436.775 MHz
ITAMSAT 1 30 Aug 05:40:43 05:45:44 50° 300° (WNW) 05:50:43 435.822 SSB
AO-Echo 30 Aug 05:42:37 05:47:03 40° 302° (WNW) 05:51:25 ?
Oscar 16 30 Aug 05:44:54 05:49:23 30° 310° (NW) 05:53:51 437.025 USB, Beacon 2401.1428
TMSAT-1 30 Aug 05:46:08 05:51:29 88° 289° (WNW) 05:56:48 436.925 FM
Uribyol 2 30 Aug 05:50:56 05:55:49 42° 303° (WNW) 06:00:41 436.500 FM
JAS-1B 30 Aug 05:55:00 06:02:31 59° 302° (WNW) 06:08:47 435.800 - 435.900 CW/SSB
KITSAT 1 30 Aug 06:07:41 06:15:45 62° 7° (N) 06:23:47 435.175 FM
AO-27 30 Aug 06:09:48 06:14:28 35° 307° (NW) 06:19:08 436.795 MHz FM
SO-50 30 Aug 06:21:30 06:25:50 45° 135° (SE) 06:30:17 436.795 FM
AO-7 30 Aug 06:24:16 06:32:25 54° 103° (ESE) 06:40:30 29.400 - 29.500 MHz
Hamsat 30 Aug 06:26:06 06:27:56 12° 80° (E) 06:29:46 145.90 MHz
Uosat F 30 Aug 06:31:55 06:36:54 61° 104° (ESE) 06:41:52 435.120 FM
Gurwin Techsat 1B 30 Aug 06:34:18 06:39:15 41° 304° (WNW) 06:44:12 435.225 FM
UOSAT-12 30 Aug 06:46:21 06:49:10 16° 116° (ESE) 06:52:00 437.025 FM, 437.400 FM
Oscar 19 30 Aug 06:49:57 06:53:08 17° 324° (NW) 06:56:18 437.125 CW, 437.150 USB
JAS-2 30 Aug 06:57:17 07:01:15 22° 87° (E) 07:05:17 435.800 - 435.900 CW/SSB, 435.910 FM
OPAL 30 Aug 07:11:07 07:13:40 14° 277° (W) 07:16:15 ?
STRAND 1 30 Aug 07:11:14 07:16:20 78° 68° (ENE) 07:21:27 ?
Saudisat 1A 30 Aug 07:20:23 07:24:46 62° 218° (SW) 07:29:08 436.775 MHz
ITAMSAT 1 30 Aug 07:20:55 07:24:16 18° 322° (NW) 07:27:38 435.822 SSB
AO-Echo 30 Aug 07:22:25 07:24:47 14° 324° (NW) 07:27:07 ?
Oscar 16 30 Aug 07:25:17 07:27:21 12° 333° (NNW) 07:29:26 437.025 USB, Beacon 2401.1428
TMSAT-1 30 Aug 07:26:31 07:30:55 27° 312° (NW) 07:35:19 436.925 FM
RS-15 30 Aug 07:27:55 07:33:56 17° 93° (E) 07:39:55 29.354 - 29.394 USB, Beacon 29.352 USB
Uribyol 2 30 Aug 07:31:10 07:34:13 16° 325° (NW) 07:37:15 436.500 FM
JAS-1B 30 Aug 07:45:36 07:51:46 26° 330° (NNW) 07:57:11 435.800 - 435.900 CW/SSB
AO-27 30 Aug 07:50:11 07:52:45 14° 329° (NNW) 07:55:20 436.795 MHz FM
Hamsat 30 Aug 08:00:32 08:04:53 57° 101° (ESE) 08:09:11 145.90 MHz
SO-50 30 Aug 08:01:42 08:06:18 74° 338° (NNW) 08:11:02 436.795 FM
KITSAT 1 30 Aug 08:03:40 08:11:50 88° 34° (NE) 08:19:57 435.175 FM
Uosat F 30 Aug 08:11:00 08:15:34 36° 305° (NW) 08:20:07 435.120 FM
Gurwin Techsat 1B 30 Aug 08:15:01 08:18:05 16° 326° (NNW) 08:21:09 435.225 FM
AO-7 30 Aug 08:17:20 08:25:30 63° 307° (NW) 08:33:37 29.400 - 29.500 MHz
UOSAT-12 30 Aug 08:23:53 08:28:27 53° 138° (SE) 08:33:05 437.025 FM, 437.400 FM
JAS-2 30 Aug 08:41:59 08:47:13 88° 109° (ESE) 08:52:35 435.800 - 435.900 CW/SSB, 435.910 FM
HO-68 30 Aug 08:43:22 08:43:53 10° 69° (ENE) 08:44:24 435.675 MHz FM
STRAND 1 30 Aug 08:51:49 08:56:06 27° 269° (W) 09:00:24 ?
Saudisat 1A 30 Aug 09:00:37 09:03:40 19° 240° (WSW) 09:06:43 436.775 MHz
TMSAT-1 30 Aug 09:07:31 09:09:21 12° 335° (NNW) 09:11:12 436.925 FM
SO-67 30 Aug 09:13:37 09:17:03 55° 102° (ESE) 09:20:28 435.3500 MHz FM
RS-15 30 Aug 09:33:03 09:43:17 48° 121° (ESE) 09:53:30 29.354 - 29.394 USB, Beacon 29.352 USB
JAS-1B 30 Aug 09:34:54 09:40:01 18° 357° (N) 09:44:40 435.800 - 435.900 CW/SSB
Hamsat 30 Aug 09:36:48 09:40:42 32° 303° (WNW) 09:44:33 145.90 MHz
SO-50 30 Aug 09:42:44 09:47:19 55° 2° (N) 09:52:01 436.795 FM
Uosat F 30 Aug 09:50:42 09:53:12 14° 328° (NNW) 09:55:41 435.120 FM
KITSAT 1 30 Aug 09:59:15 10:06:44 43° 239° (WSW) 10:14:11 435.175 FM
UOSAT-12 30 Aug 10:03:54 10:08:37 69° 341° (NNW) 10:13:23 437.025 FM, 437.400 FM
AO-7 30 Aug 10:10:07 10:17:08 32° 333° (NNW) 10:24:08 29.400 - 29.500 MHz
HO-68 30 Aug 10:27:27 10:34:00 37° 94° (E) 10:40:31 435.675 MHz FM
JAS-2 30 Aug 10:27:38 10:31:55 27° 312° (NW) 10:36:15 435.800 - 435.900 CW/SSB, 435.910 FM
Oscar 16 30 Aug 10:40:54 10:41:53 11° 22° (NNE) 10:42:53 437.025 USB, Beacon 2401.1428
SO-67 30 Aug 10:47:04 10:49:54 24° 302° (WNW) 10:52:44 435.3500 MHz FM
Hamsat 30 Aug 11:14:42 11:15:31 11° 325° (NW) 11:16:20 145.90 MHz
UKube-1 30 Aug 11:21:08 11:25:19 43° 100° (E) 11:29:28 145.840 MHz, 145.915 MHz
JAS-1B 30 Aug 11:21:52 11:28:08 23° 23° (NNE) 11:33:45 435.800 - 435.900 CW/SSB
SO-50 30 Aug 11:23:35 11:28:19 80° 25° (NNE) 11:33:08 436.795 FM
Oscar 11 30 Aug 11:27:34 11:31:42 38° 97° (E) 11:35:47 145.825 FM, Beacon 2401.500 USB
Oscar 19 30 Aug 11:42:03 11:45:16 17° 37° (NE) 11:48:30 437.125 CW, 437.150 USB
RS-15 30 Aug 11:43:53 11:54:53 90° 330° (NNW) 12:05:58 29.354 - 29.394 USB, Beacon 29.352 USB
UOSAT-12 30 Aug 11:44:35 11:49:16 56° 4° (N) 11:53:58 437.025 FM, 437.400 FM
FUNcube-1 30 Aug 11:52:13 11:56:16 32° 94° (E) 12:00:22 145.950 - 145.970 MHz USB
KITSAT 1 30 Aug 11:56:23 12:00:04 14° 264° (W) 12:03:45 435.175 FM
AO-7 30 Aug 12:01:36 12:07:50 25° 360° (N) 12:14:04 29.400 - 29.500 MHz
AO-Echo 30 Aug 12:12:43 12:15:17 14° 37° (NE) 12:17:49 ?
ITAMSAT 1 30 Aug 12:13:52 12:16:57 16° 35° (NE) 12:20:03 435.822 SSB
JAS-2 30 Aug 12:14:03 12:15:30 11° 337° (NNW) 12:16:58 435.800 - 435.900 CW/SSB, 435.910 FM
HO-68 30 Aug 12:15:14 12:22:24 79° 297° (WNW) 12:29:34 435.675 MHz FM
Oscar 16 30 Aug 12:15:38 12:19:40 24° 45° (NE) 12:23:43 437.025 USB, Beacon 2401.1428
TMSAT-1 30 Aug 12:23:11 12:24:59 12° 24° (NNE) 12:26:46 436.925 FM
Uribyol 2 30 Aug 12:23:26 12:26:50 18° 38° (NE) 12:30:15 436.500 FM
AO-27 30 Aug 12:41:45 12:45:33 21° 42° (NE) 12:49:21 436.795 MHz FM
UKube-1 30 Aug 12:57:28 13:01:33 40° 301° (WNW) 13:05:38 145.840 MHz, 145.915 MHz
Oscar 11 30 Aug 13:03:49 13:08:00 45° 298° (WNW) 13:12:11 145.825 FM, Beacon 2401.500 USB
SO-50 30 Aug 13:04:17 13:08:43 41° 227° (SW) 13:13:13 436.795 FM
Gurwin Techsat 1B 30 Aug 13:08:25 13:12:05 19° 39° (NE) 13:15:44 435.225 FM
JAS-1B 30 Aug 13:08:34 13:17:00 42° 48° (NE) 13:24:19 435.800 - 435.900 CW/SSB
Oscar 19 30 Aug 13:18:40 13:23:36 46° 59° (ENE) 13:28:34 437.125 CW, 437.150 USB
UOSAT-12 30 Aug 13:25:01 13:29:48 86° 28° (NNE) 13:34:34 437.025 FM, 437.400 FM
FUNcube-1 30 Aug 13:28:33 13:32:55 55° 295° (WNW) 13:37:23 145.950 - 145.970 MHz USB
AO-Echo 30 Aug 13:48:26 13:53:04 42° 59° (ENE) 13:57:35 ?
ITAMSAT 1 30 Aug 13:50:31 13:55:24 44° 58° (ENE) 14:00:18 435.822 SSB
AO-7 30 Aug 13:51:33 13:58:32 32° 27° (NNE) 14:05:30 29.400 - 29.500 MHz
Oscar 16 30 Aug 13:53:13 13:58:23 74° 67° (ENE) 14:03:36 437.025 USB, Beacon 2401.1428
RS-15 30 Aug 13:57:02 14:08:00 73° 1° (N) 14:19:10 29.354 - 29.394 USB, Beacon 29.352 USB
TMSAT-1 30 Aug 13:59:02 14:03:24 27° 48° (NE) 14:07:47 436.925 FM
Uribyol 2 30 Aug 14:00:24 14:05:23 51° 60° (ENE) 14:10:24 436.500 FM
HO-68 30 Aug 14:03:13 14:09:24 33° 321° (NW) 14:15:34 435.675 MHz FM
AO-27 30 Aug 14:19:12 14:24:19 64° 64° (ENE) 14:29:27 436.795 MHz FM
ISS 30 Aug 14:30:58 14:33:06 16° 171° (S) 14:35:15 145.800 FM
UKube-1 30 Aug 14:34:50 14:36:49 13° 322° (NW) 14:38:47 145.840 MHz, 145.915 MHz
Uosat F 30 Aug 14:40:27 14:43:51 19° 40° (NE) 14:47:14 435.120 FM
MaSat-1 30 Aug 14:40:40 14:45:05 30° 114° (ESE) 14:49:33 437.345 MHz
Oscar 11 30 Aug 14:41:05 14:43:18 14° 319° (NW) 14:45:31 145.825 FM, Beacon 2401.500 USB
Gurwin Techsat 1B 30 Aug 14:45:59 14:51:09 55° 62° (ENE) 14:56:21 435.225 FM
SO-50 30 Aug 14:46:41 14:48:13 11° 248° (WSW) 14:49:46 436.795 FM
JAS-1B 30 Aug 14:57:32 15:07:05 87° 250° (WSW) 15:15:18 435.800 - 435.900 CW/SSB
Oscar 19 30 Aug 14:58:01 15:03:01 47° 261° (W) 15:08:05 437.125 CW, 437.150 USB
UOSAT-12 30 Aug 15:05:22 15:09:42 35° 230° (SW) 15:13:59 437.025 FM, 437.400 FM
FUNcube-1 30 Aug 15:05:50 15:08:34 16° 316° (NW) 15:11:21 145.950 - 145.970 MHz USB
AO-Echo 30 Aug 15:27:03 15:31:52 49° 260° (W) 15:36:34 ?
ITAMSAT 1 30 Aug 15:29:53 15:34:55 51° 259° (W) 15:39:59 435.822 SSB
Oscar 16 30 Aug 15:33:49 15:38:16 29° 269° (W) 15:42:46 437.025 USB, Beacon 2401.1428
TMSAT-1 30 Aug 15:37:31 15:42:49 87° 70° (ENE) 15:48:10 436.925 FM
JAS-2 30 Aug 15:38:47 15:41:26 14° 30° (NNE) 15:44:02 435.800 - 435.900 CW/SSB, 435.910 FM
Uribyol 2 30 Aug 15:40:09 15:45:03 42° 262° (W) 15:49:59 436.500 FM
AO-7 30 Aug 15:41:58 15:50:07 61° 52° (NE) 15:58:15 29.400 - 29.500 MHz
HO-68 30 Aug 15:50:35 15:55:19 20° 346° (NNW) 16:00:03 435.675 MHz FM
Hamsat 30 Aug 15:56:49 15:57:27 10° 35° (NE) 15:58:06 145.90 MHz
AO-27 30 Aug 15:59:32 16:04:13 33° 266° (W) 16:08:55 436.795 MHz FM
ISS 30 Aug 16:06:55 16:09:00 16° 191° (S) 16:11:04 145.800 FM
RS-15 30 Aug 16:10:04 16:21:05 88° 212° (SSW) 16:32:23 29.354 - 29.394 USB, Beacon 29.352 USB
MaSat-1 30 Aug 16:16:36 16:21:46 86° 315° (NW) 16:26:55 437.345 MHz
Uosat F 30 Aug 16:16:55 16:21:48 55° 62° (ENE) 16:26:42 435.120 FM
Gurwin Techsat 1B 30 Aug 16:26:21 16:31:21 40° 264° (W) 16:36:23 435.225 FM
Oscar 19 30 Aug 16:41:52 16:43:44 12° 283° (WNW) 16:45:35 437.125 CW, 437.150 USB
JAS-1B 30 Aug 16:50:09 16:58:32 35° 272° (W) 17:06:00 435.800 - 435.900 CW/SSB
AO-Echo 30 Aug 17:10:15 17:11:51 11° 282° (WNW) 17:13:26 ?
ITAMSAT 1 30 Aug 17:13:30 17:15:42 13° 282° (WNW) 17:17:55 435.822 SSB
TMSAT-1 30 Aug 17:19:09 17:23:27 25° 272° (W) 17:27:46 436.925 FM
JAS-2 30 Aug 17:20:13 17:25:19 36° 54° (NE) 17:30:06 435.800 - 435.900 CW/SSB, 435.910 FM
Uribyol 2 30 Aug 17:25:26 17:26:00 10° 285° (WNW) 17:26:33 436.500 FM
Hamsat 30 Aug 17:28:26 17:32:16 31° 57° (ENE) 17:36:08 145.90 MHz
OPAL 30 Aug 17:28:30 17:32:15 19° 88° (E) 17:35:58 ?
AO-7 30 Aug 17:34:58 17:43:08 57° 256° (WSW) 17:51:21 29.400 - 29.500 MHz
HO-68 30 Aug 17:36:06 17:40:47 19° 12° (NNE) 17:45:28 435.675 MHz FM
Sapphire 30 Aug 17:46:54 17:50:20 17° 109° (ESE) 17:53:48 437.095 MHz 1200 baud AX-25 AFSK
MaSat-1 30 Aug 17:54:30 17:59:22 40° 338° (NNW) 18:04:07 437.345 MHz
Uosat F 30 Aug 17:56:12 18:00:51 37° 264° (W) 18:05:31 435.120 FM
PCSat 30 Aug 18:15:00 18:19:26 26° 116° (ESE) 18:23:53 145.825 MHz
RS-15 30 Aug 18:22:27 18:32:37 46° 241° (WSW) 18:43:06 29.354 - 29.394 USB, Beacon 29.352 USB
SO-67 30 Aug 18:24:34 18:26:58 18° 54° (NE) 18:29:23 435.3500 MHz FM
JAS-1B 30 Aug 18:50:04 18:51:53 11° 297° (WNW) 18:53:39 435.800 - 435.900 CW/SSB
Hamsat 30 Aug 19:03:45 19:08:03 59° 258° (WSW) 19:12:25 145.90 MHz
JAS-2 30 Aug 19:04:33 19:10:20 66° 256° (WSW) 19:15:38 435.800 - 435.900 CW/SSB, 435.910 FM
OPAL 30 Aug 19:06:45 19:12:01 75° 110° (ESE) 19:17:15 ?
STRAND 1 30 Aug 19:12:48 19:15:10 13° 79° (E) 19:17:33 ?
UKube-1 30 Aug 19:18:59 19:19:47 10° 33° (NNE) 19:20:36 145.840 MHz, 145.915 MHz
HO-68 30 Aug 19:20:34 19:26:40 32° 38° (NE) 19:32:46 435.675 MHz FM
Sapphire 30 Aug 19:27:30 19:32:48 58° 131° (SE) 19:38:09 437.095 MHz 1200 baud AX-25 AFSK
